Location: Cutler
(25.6150°N, 80.3110°W)
Time: 15:54:17
(UTC-05:00)

Vanguard 2 Rocket - All Passes

Search period start: 20 November 2017 00:00
Search period end: 30 November 2017 00:00
Orbit: 556 x 3326 km, 32.9° (Epoch: 19 November)

Date Brightness Start Highest point End Pass type
(mag) Time Alt. Az. Time Alt. Az. Time Alt. Az.
20 Nov - 01:51:44 10° WSW 02:10:55 89° SSE 02:22:30 10° ENE visible
20 Nov - 04:13:03 10° W 04:27:36 59° N 04:35:41 10° ENE visible
20 Nov - 06:33:21 10° WNW 06:43:04 61° N 06:48:36 10° E daylight
20 Nov - 08:50:35 10° WNW 08:56:21 40° SW 09:00:23 10° SE daylight
20 Nov - 22:34:02 10° SSW 22:51:34 38° SE 23:06:37 10° E visible
21 Nov - 00:49:23 10° SW 01:09:30 76° SSE 01:22:54 10° ENE visible
21 Nov - 03:09:45 10° W 03:26:51 68° NNW 03:36:35 10° ENE visible
21 Nov - 05:31:11 10° WNW 05:43:06 57° N 05:49:42 10° E visible
21 Nov - 07:49:34 10° WNW 07:57:22 72° SSW 08:02:07 10° ESE daylight
21 Nov - 21:34:45 10° S 21:49:54 28° SE 22:04:19 10° E visible
21 Nov - 23:47:43 10° SW 00:07:47 63° SSE 00:22:51 10° ENE visible
22 Nov - 02:06:33 10° WSW 02:25:41 78° NNW 02:37:16 10° ENE visible
22 Nov - 04:28:22 10° W 04:42:42 58° N 04:50:40 10° ENE visible
22 Nov - 06:48:10 10° WNW 06:58:00 82° NNE 07:03:32 10° ESE daylight
22 Nov - 09:06:05 10° W 09:10:33 21° SW 09:13:58 10° S daylight
22 Nov - 20:37:00 10° S 20:48:22 19° SE 21:00:00 10° E visible
22 Nov - 22:46:52 10° SW 23:05:56 51° SE 23:22:11 10° ENE visible
23 Nov - 01:03:46 10° WSW 01:24:09 89° NNW 01:37:41 10° ENE visible
23 Nov - 03:25:05 10° W 03:41:53 62° N 03:51:29 10° ENE visible
23 Nov - 05:46:10 10° WNW 05:58:10 68° NNE 06:04:43 10° E visible
23 Nov - 08:04:32 10° WNW 08:11:47 42° SW 08:16:23 10° SE daylight
23 Nov - 19:45:40 10° SE 19:46:58 10° SE 19:48:17 10° SE visible
23 Nov - 21:46:53 10° SSW 22:04:09 40° SE 22:20:41 10° E visible
24 Nov - 00:01:40 10° SW 00:22:17 79° SSE 00:37:43 10° ENE visible
24 Nov - 02:21:42 10° W 02:40:37 69° NNW 02:52:06 10° ENE visible
24 Nov - 04:43:31 10° WNW 04:57:51 63° N 05:05:43 10° E visible
24 Nov - 07:02:57 10° WNW 07:12:40 70° SSW 07:18:11 10° SE daylight
24 Nov - 20:47:56 10° S 21:02:35 29° SE 21:17:56 10° E visible
24 Nov - 23:00:21 10° SW 23:20:16 66° SSE 23:37:15 10° ENE visible
25 Nov - 01:18:37 10° WSW 01:38:56 77° NNW 01:52:28 10° ENE visible
25 Nov - 03:40:23 10° W 03:57:03 62° N 04:06:30 10° E visible
25 Nov - 06:00:59 10° WNW 06:13:04 87° NNE 06:19:36 10° ESE visible
25 Nov - 08:20:01 10° W 08:25:51 23° SW 08:29:58 10° S daylight
25 Nov - 19:50:31 10° S 20:01:19 19° SE 20:13:09 10° E visible
25 Nov - 21:59:53 10° SW 22:18:19 53° SE 22:36:09 10° ENE visible
26 Nov - 00:16:08 10° WSW 00:36:55 88° NNW 00:52:29 10° ENE visible
26 Nov - 02:37:01 10° W 02:55:44 65° N 03:07:03 10° ENE visible
26 Nov - 04:58:30 10° WNW 05:12:55 73° NNE 05:20:44 10° E visible
26 Nov - 07:17:55 10° WNW 07:27:00 44° SW 07:32:24 10° SSE daylight
26 Nov - 21:00:17 10° SSW 21:16:36 41° SE 21:34:11 10° ENE visible
26 Nov - 23:14:25 10° WSW 23:34:42 81° SSE 23:52:05 10° ENE visible
27 Nov - 01:33:47 10° W 01:53:56 70° NNW 02:07:20 10° ENE visible
27 Nov - 03:55:34 10° WNW 04:12:12 67° N 04:21:34 10° E visible
27 Nov - 06:15:46 10° WNW 06:27:41 69° SSW 06:34:12 10° SE visible
27 Nov - 08:37:09 10° WSW 08:39:43 12° SW 08:41:55 10° SSW daylight
27 Nov - 20:01:42 10° S 20:15:18 29° SE 20:30:59 10° E visible
27 Nov - 22:13:31 10° SW 22:32:32 68° SSE 22:51:10 10° ENE visible
28 Nov - 00:31:01 10° WSW 00:51:45 77° NNW 01:07:17 10° ENE visible
28 Nov - 02:52:19 10° W 03:10:55 65° N 03:22:05 10° E visible
28 Nov - 05:13:20 10° WNW 05:27:47 90° SW 05:35:34 10° ESE visible
28 Nov - 07:33:22 10° W 07:40:58 26° SW 07:46:00 10° S daylight
28 Nov - 19:04:38 10° S 19:14:23 18° SE 19:25:44 10° E visible
28 Nov - 21:13:27 10° SW 21:30:37 54° SE 21:49:35 10° ENE visible
28 Nov - 23:28:57 10° WSW 23:49:21 86° NNW 00:06:52 10° ENE visible
29 Nov - 01:49:05 10° W 02:09:06 67° N 02:22:20 10° ENE visible
29 Nov - 04:10:32 10° WNW 04:27:16 77° NNE 04:36:33 10° ESE visible
29 Nov - 06:30:44 10° WNW 06:41:55 46° SW 06:48:23 10° SSE daylight
29 Nov - 20:14:13 10° SSW 20:29:08 41° SE 20:47:09 10° ENE visible
29 Nov - 22:27:40 10° WSW 22:46:56 82° SSE 23:05:59 10° ENE visible
